Kosmos-2094

operational
NORAD ID: 20739 Int'l Des: 1990-070 Owner: UNKS Country: SU
LEOCIRCULARPOLAR

Über Kosmos-2094

Beschreibung wird geladen...

Live-Position

3D-Globus wird geladen...

Nächste Überflüge

Höhenverlauf

Altitude vs Time

uPlot chart will show altitude changes over time

Zweizeiliger Elementsatz

1 20739U 90070E 26062.19367214 .00000007 00000-0 -21430-4 0 9998
2 20739 82.5811 359.7517 0011283 336.2506 146.5913 12.64752053641820
Epoch: 3. März 2026 • Age: 26 hours

Aktueller Status

Höhe 1424.7 km
Geschwindigkeit 7.15 km/s
Subsatellitenpunkt -73.82°S, 135°E
Startdatum 8. Aug. 1990
Alter 35.5 years
Typ other

Technische Details

Klassifizierung Payload
Masse 225.00 kg
Trockenmasse 225.00 kg
Gesamtmasse 225.00 kg
Länge 1.60 m
Durchmesser 0.80 m
Spannweite 7.00 m
Form Cyl + Ant
Hersteller NPOPM
Bus-Typ Strela-3
Phasenstatus In Orbit
Besitzer/Staat UNKS/SU

Große Konstellationen

Loading constellations...